CDT,Max TemperatureF,Mean TemperatureF,Min TemperatureF,Max Dew PointF,MeanDew PointF,Min DewpointF,Max Humidity, Mean Humidity, Min Humidity, Max Sea Level PressureIn, Mean Sea Level PressureIn, Min Sea Level PressureIn, Max VisibilityMiles, Mean VisibilityMiles, Min VisibilityMiles, Max Wind SpeedMPH, Mean Wind SpeedMPH, Max Gust SpeedMPH,PrecipitationIn, CloudCover, Events, WindDirDegrees
2013-3-1,57,37,17,9,5,0,50,27,14,30.37,30.31,30.26,10,10,10,21,8,26,0.00,0,,357
2013-3-2,66,44,21,16,8,1,46,26,12,30.44,30.36,30.30,10,10,10,16,6,21,0.00,0,,327
2013-3-3,75,50,24,18,10,0,46,24,11,30.30,30.15,30.03,10,10,10,25,7,30,0.00,0,,302
2013-3-4,75,55,35,21,9,0,25,15,10,30.08,29.99,29.89,10,10,8,31,11,36,0.00,1,,230
2013-3-5,57,45,33,32,23,14,70,43,21,30.41,30.31,30.10,10,10,9,29,14,34,0.00,1,,32
2013-3-6,66,50,33,25,20,16,52,36,20,30.34,30.24,30.15,10,10,10,18,5,23,0.00,0,,165
2013-3-7,75,55,35,25,20,16,48,29,13,30.16,30.10,30.03,10,10,10,17,7,23,0.00,0,,172
2013-3-8,73,58,44,36,29,19,50,33,23,30.11,30.02,29.92,10,10,10,26,8,32,0.00,3,,180
2013-3-9,66,54,42,32,26,14,53,35,22,29.97,29.89,29.81,10,10,10,21,11,30,0.00,0,,263
2013-3-10,48,40,30,19,16,9,52,37,24,30.22,30.10,29.98,10,10,10,25,13,32,0.00,0,,6
2013-3-11,62,40,19,19,11,3,58,33,14,30.25,30.18,30.10,10,10,10,16,6,23,0.00,0,,281
2013-3-12,66,46,26,23,12,1,37,26,13,30.34,30.20,30.12,10,10,10,20,6,24,0.00,0,,38
2013-3-13,69,50,32,25,18,9,60,30,13,30.44,30.36,30.31,10,10,10,15,9,20,0.00,0,,84
2013-3-14,75,52,30,25,16,9,55,27,11,30.39,30.32,30.25,10,10,10,9,6,,0.00,0,,218
2013-3-15,80,56,33,28,17,7,52,26,10,30.30,30.19,30.08,10,10,10,14,6,23,0.00,0,,303
2013-3-16,80,56,33,21,13,1,38,19,10,30.07,29.99,29.90,10,10,10,23,8,28,0.00,0,,311
2013-3-17,77,60,42,18,12,1,24,15,11,30.00,29.93,29.86,10,10,10,28,11,36,0.00,0,,275
2013-3-18,71,55,39,23,16,10,34,20,12,30.13,30.06,29.96,10,10,10,18,10,28,0.00,0,,274
2013-3-19,77,57,37,23,15,10,39,22,10,30.14,30.08,30.01,10,10,10,21,8,28,0.00,0,,297
2013-3-20,66,54,42,39,36,19,81,54,25,30.32,30.19,30.05,10,10,10,26,14,28,0.00,0,,64
2013-3-21,80,58,37,43,28,16,87,43,10,30.04,29.88,29.77,10,10,9,31,9,39,0.00,0,,297
2013-3-22,77,60,42,25,17,10,32,19,11,29.92,29.85,29.78,10,10,9,22,10,30,0.00,0,,274
2013-3-23,71,56,41,27,17,7,37,21,11,30.00,29.90,29.84,10,10,8,30,13,38,0.00,1,,271
2013-3-24,59,44,28,16,8,-9,59,28,12,30.20,30.09,29.98,10,10,5,25,15,33,0.00,2,,56
2013-3-25,55,40,24,16,10,1,38,29,21,30.28,30.16,30.06,10,10,10,16,6,20,0.00,0,,36
2013-3-26,62,42,23,18,13,9,54,33,16,30.33,30.25,30.17,10,10,9,15,7,22,0.00,0,,118
2013-3-27,75,52,28,32,22,9,55,33,17,30.21,30.15,30.08,10,10,10,16,5,20,0.00,0,,170
2013-3-28,78,60,41,39,31,25,57,38,15,30.21,30.15,30.09,10,10,10,20,5,22,0.00,1,,359
2013-3-29,78,58,39,45,35,21,76,46,14,30.21,30.17,30.10,10,10,8,10,5,,0.00,1,,333
2013-3-30,80,58,37,43,28,19,87,39,12,30.20,30.14,30.06,10,10,7,21,7,28,0.00,0,,311
2013-3-31,75,65,55,36,28,21,44,26,16,30.13,30.09,30.04,10,10,10,21,8,26,0.00,2,,12